Flag for U.S.A. Weather past 2 weeks in Modesto, California, U.S.A.

Now
62 °F

Clear.


Feels Like: 62 °F
Forecast: 60 / 87 °F
Wind: 7 mph from North

Location: Modesto City-County-Sham Field

Current Time: Aug 20, 2014 at 7:38:13 AM

Latest Report: Aug 20, 2014 at 6:53 AM


Visibility: 10 mi

Pressure: 29.85 "Hg

Humidity: 83%

Dew point: 57 °F

Location of ModestoLocation

Historic Weather in Modesto — Graph

°F

Modesto temperature yesterday

Maximum temperature yesterday: 88 °F (at 4:53 PM)
Minimum temperature yesterday: 61 °F (at 5:53 AM)
Average temperature yesterday: 73 °F

Past Weeks' High & Low Weather Summary

 TemperatureHumidityPressure
High96 °F (Aug 11, 3:53 PM)87% (Aug 20, 5:53 AM)30.00 "Hg (Aug 20, 5:53 AM)
Low59 °F (Aug 10, 5:53 AM)14% (Aug 17, 2:53 PM)29.70 "Hg (Aug 18, 6:53 PM)
Average77 °F48%29.88 "Hg
* Reported Aug 5 5:53 AM — Aug 20 5:53 AM, Modesto, Weather by CustomWeather, © 2014

Note: Actual official high and low records may vary slightly from our data, if they occured in-between our weather recording intervals... More about our weather records

Advertising

Modesto weather history for previous 24 hours

 ConditionsComfort  
Time TempWeatherWind HumidityBarometerVisibility
5:53 AM
Aug 20
61 °FClear.7 mph87%29.82 "Hg10 mi
4:53 AM62 °FClear.6 mph83%29.82 "Hg10 mi
3:53 AM63 °FClear.7 mph81%29.81 "Hg10 mi
2:53 AM64 °FClear.7 mph78%29.81 "Hg10 mi
1:53 AM64 °FClear.8 mph78%29.80 "Hg10 mi
12:53 AM66 °FClear.8 mph73%29.80 "Hg10 mi
11:53 PM
Aug 19
68 °FClear.8 mph68%29.78 "Hg10 mi
10:53 PM71 °FClear.8 mph61%29.77 "Hg10 mi
9:53 PM74 °FClear.8 mph57%29.77 "Hg10 mi
8:53 PM78 °FClear.9 mph48%29.76 "Hg10 mi
7:53 PM80 °FSunny.10 mph49%29.73 "Hg10 mi
6:53 PM83 °FSunny.9 mph41%29.72 "Hg10 mi
5:53 PM86 °FSunny.9 mph39%29.72 "Hg10 mi
4:53 PM88 °FSunny.9 mph35%29.72 "Hg10 mi
3:53 PM86 °FSunny.9 mph36%29.73 "Hg10 mi
2:53 PM85 °FSunny.7 mph37%29.75 "Hg10 mi
1:53 PM83 °FSunny.7 mph40%29.77 "Hg10 mi
12:53 PM80 °FSunny.10 mph44%29.78 "Hg10 mi
11:53 AM75 °FSunny.6 mph52%29.81 "Hg10 mi
10:53 AM71 °FSunny.7 mph59%29.83 "Hg10 mi
9:53 AM68 °FSunny.9 mph65%29.83 "Hg10 mi
8:53 AM65 °FSunny.13 mph73%29.83 "Hg10 mi
7:53 AM61 °FSunny.7 mph83%29.81 "Hg10 mi
Weather by CustomWeather, © 2014

See weather overviewHow to use our weather pages